Location: Elstree
(51.6403°N, 0.2969°W)
Time: 12:33:43
(UTC+00:00)

USA 305 - Pass Details

Date: 03 March 2021
Orbit: 567 x 574 km, 54.0° (Epoch: 13 April)

Event Time Altitude Azimuth Distance (km) Brightness Sun altitude
Rises 19:43:34 0° 279° (W) 2,781 8.1 -19.0°
Reaches altitude 10° 19:45:51 10° 283° (WNW) 1,881 6.8 -19.4°
Maximum altitude 19:50:06 64° 5° (N) 638 3.1 -20.0°
Enters shadow 19:51:05 47° 62° (ENE) 758 3.2 -20.2°
